[[{"header":{"parameterUnit":"m.s-1","parameterCategory":1,"la1":30.2991,"la2":30.254,"lo1":-89.0895,"lo2":-89.0444,"dy":0.0017,"dx":0.0017,"nx":28,"ny":28,"refTime":"2025-04-26T09:00:00:Z","depth":0,"parameterNumber":2,"parameterNumberName":"U-component_of_WINDS"},"data":[0,0,0,0,0,0,0,0,0,0,0,0,0,0,0,0,0,0,0,0,0,0,0,0,0,0,0,0,0,0,0,0,0,0,0,0,0,0,0,0,0,0,0,0,0,0,0,0,0,0,0,0,0,0,0,0,0,0,0.9249,0.9249,0,0.9274,0.9274,0.9275,0.9259,0.9258,0.9258,0.9257,0.9282,0.9283,0.9285,0,0,0,0,0,0,0,0,0,0,0,0,0,0.9187,0.9188,0.9249,0.9249,0.925,0.9274,0.9274,0.9275,0.9259,0.9258,0.9258,0.9257,0.9281,0.9283,0.9285,0,0,0,0,0,0,0,0,0,0,0,0,0,0.9213,0.9188,0.9249,0.9245,0.9245,0.9274,0.9274,0.9275,0.926,0.9258,0.9257,0.9256,0.9281,0.9283,0.9285,0.9319,0,0,0.9291,0.9292,0,0,0,0,0,0,0,0,0.9211,0.9215,0.9245,0.9245,0.9245,0.9262,0.9261,0.929,0.926,0.9254,0.9257,0.9256,0.9276,0.9279,0.9286,0.932,0.9321,0.9291,0.9292,0.9293,0.9294,0,0,0,0,0,0,0,0.921,0.9214,0.9259,0.9246,0.9246,0.9241,0.9244,0.9267,0.9271,0.9254,0.9253,0.9257,0.9276,0.9284,0.9286,0.9322,0.9291,0.9293,0.9294,0.9295,0.9384,0.9385,0,0,0,0,0,0,0.9208,0.9213,0.9258,0.926,0.9225,0.9243,0.9246,0.9258,0.9271,0.9271,0.9257,0.9256,0.9281,0.9284,0.9287,0.9326,0.9293,0.9295,0.9296,0.9383,0.9384,0.9385,0,0,0,0,0,0,0.9207,0.9213,0.9257,0.9236,0.9241,0.9246,0.9259,0.9259,0.9267,0.9273,0.9273,0.9265,0.928,0.9284,0.9311,0.9327,0.9296,0.9298,0.9381,0.9383,0.9385,0.9406,0,0,0,0,0,0,0.9205,0.9212,0.9226,0.9236,0.9242,0.9281,0.926,0.926,0.927,0.9268,0.928,0.9281,0.928,0.9308,0.9313,0.9329,0.9299,0.938,0.9382,0.9384,0.9404,0.9409,0.9413,0,0,0,0,0,0.9203,0.9231,0.9226,0.9232,0.9259,0.9282,0.9286,0.9284,0.9272,0.9285,0.9289,0.928,0.9325,0.9311,0.9316,0.9333,0.9379,0.9381,0.9384,0.9402,0.9408,0.9412,0,0,0,0,0,0,0.9222,0.9232,0.9227,0.926,0.927,0.9279,0.9296,0.929,0.9304,0.9302,0.9299,0.9301,0.9329,0.9334,0.9318,0.9366,0.935,0.9354,0.9362,0.9367,0.9371,0.9369,0.9301,0,0,0,0,0,0.923,0.9248,0.9256,0.9283,0.9289,0.9292,0.9302,0.9299,0.931,0.9314,0.932,0.9331,0.9347,0.9357,0.9373,0.9405,0.9407,0.942,0.9424,0.9427,0.943,0.9446,0.9452,0.9394,0.9394,0.9394,0,0,0.9246,0.9254,0.9266,0.9287,0.9295,0.9313,0.9296,0.9316,0.9329,0.9317,0.9342,0.9347,0.9359,0.9388,0.9401,0.9393,0.9447,0.9431,0.9433,0.9434,0.9449,0.9455,0.946,0.9396,0.9395,0.9395,0,0,0.9285,0.9294,0.9317,0.9325,0.9337,0.9339,0.9344,0.9354,0.9357,0.9382,0.9374,0.9389,0.9418,0.9425,0.9433,0.9474,0.9467,0.9479,0.95,0.9516,0.9521,0.9525,0.9538,0.9543,0.9483,0.9483,0.9483,0,0.9304,0.9331,0.933,0.935,0.9359,0.935,0.9372,0.9381,0.9397,0.9403,0.9394,0.9428,0.9436,0.9466,0.9476,0.9483,0.9488,0.9478,0.952,0.9524,0.9528,0.954,0.9545,0.9484,0.9484,0.9484,0.9484,0,0.9353,0.9372,0.9389,0.9405,0.9416,0.9438,0.9438,0.945,0.9447,0.9449,0.9474,0.9482,0.9498,0.9506,0.9503,0.9535,0.953,0.9521,0.9503,0.9535,0.9546,0.9551,0.9486,0.9486,0.9485,0.9485,0,0,0.9404,0.9418,0.9425,0.9431,0.9443,0.9458,0.9478,0.9494,0.9503,0.9515,0.9531,0.9555,0.9546,0.9555,0.9553,0.9567,0.9597,0.9556,0.9556,0.9562,0.9632,0.9637,0.9643,0.9593,0.9594,0.9594,0.963,0,0.9443,0.9479,0.9477,0.9511,0.9527,0.9519,0.9536,0.9546,0.9548,0.9562,0.9565,0.9581,0.9569,0.9574,0.9588,0.9591,0.9611,0.9588,0.9607,0.9607,0.9603,0.9649,0.9656,0.9689,0.9635,0.9636,0.9636,0,0.9492,0.9505,0.954,0.9549,0.9556,0.9572,0.9585,0.9599,0.9609,0.961,0.9619,0.9615,0.9635,0.9618,0.9645,0.963,0.9637,0.964,0.9641,0.9642,0.9623,0.965,0.97,0.9705,0.9644,0.9643,0.9643,0,0.9524,0.955,0.9574,0.958,0.9592,0.9603,0.9608,0.9617,0.9626,0.9638,0.9643,0.9658,0.9665,0.9676,0.9675,0.9663,0.9702,0.9686,0.9702,0.9702,0.971,0.9709,0.976,0.9717,0.9717,0.9717,0.9717,0,0.9566,0.9588,0.9588,0.9603,0.9626,0.9625,0.9648,0.9652,0.9659,0.9674,0.9668,0.9681,0.968,0.9694,0.9693,0.9715,0.9718,0.9719,0.9718,0.9719,0.9718,0.9723,0.972,0.9718,0.9718,0.9718,0.9717,0,0.9605,0.9607,0.9632,0.9641,0.9643,0.966,0.9667,0.968,0.9682,0.9701,0.9705,0.9708,0.9723,0.9724,0.9742,0.9741,0.9767,0.9765,0.9764,0.9763,0.9779,0.9777,0.9834,0.984,0.9794,0.9794,0.9795,0,0.9632,0.9648,0.9658,0.9667,0.9673,0.9688,0.9697,0.9696,0.9706,0.9717,0.9729,0.9744,0.9756,0.9781,0.9785,0.9798,0.9795,0.9814,0.9797,0.9796,0.9793,0.9792,0.9793,0.9817,0.9818,0.9818,0.9818,0,0.9677,0.9677,0.9691,0.9704,0.9715,0.9726,0.9736,0.9744,0.9744,0.9755,0.977,0.978,0.9798,0.9812,0.9825,0.983,0.9824,0.9824,0.9828,0.9828,0.9826,0.9826,0.9771,0.9822,0.9822,0.9822,0.9821,0.9821,0.971,0.9723,0.9732,0.9747,0.9754,0.9763,0.9776,0.9779,0.9793,0.9807,0.9806,0.9823,0.9831,0.9848,0.9854,0.9867,0.986,0.9867,0.9868,0.9869,0.987,0.9825,0.9869,0.9869,0.9869,0.9869,0.9869,0,0.9754,0.9759,0.9773,0.9787,0.9798,0.9792,0.9802,0.9812,0.9827,0.9836,0.9847,0.9865,0.9879,0.9883,0.9896,0.9906,0.9903,0.9909,0.9908,0.9909,0.9876,0.987,0.9911,0.9911,0.9911,0.9911,0.9911,0.9911,0.9778,0.98,0.9801,0.9826,0.9831,0.9847,0.9854,0.9862,0.9868,0.9888,0.99,0.9902,0.9909,0.9922,0.9934,0.9935,0.994,0.9947,0.9946,0.9916,0.9911,0.9907,0.9902,0.9948,0.9948,0.9978,0.9978,0.9978]},{"header":{"parameterUnit":"m.s-1","parameterCategory":1,"la1":30.2991,"la2":30.254,"lo1":-89.0895,"lo2":-89.0444,"dy":0.0017,"dx":0.0017,"nx":28,"ny":28,"refTime":"2025-04-26T09:00:00:Z","depth":0,"parameterNumber":3,"parameterNumberName":"V-component_of_WINDS"},"data":[0,0,0,0,0,0,0,0,0,0,0,0,0,0,0,0,0,0,0,0,0,0,0,0,0,0,0,0,0,0,0,0,0,0,0,0,0,0,0,0,0,0,0,0,0,0,0,0,0,0,0,0,0,0,0,0,0,0,2.679,2.679,0,2.6766,2.6766,2.6766,2.6705,2.6703,2.6702,2.6701,2.6678,2.6678,2.6679,0,0,0,0,0,0,0,0,0,0,0,0,0,2.6783,2.6783,2.679,2.679,2.6789,2.6766,2.6766,2.6766,2.6705,2.6703,2.6702,2.67,2.6677,2.6678,2.6679,0,0,0,0,0,0,0,0,0,0,0,0,0,2.6775,2.6784,2.679,2.6756,2.6753,2.6766,2.6766,2.6766,2.6705,2.6703,2.6701,2.6699,2.6677,2.6678,2.6679,2.6724,0,0,2.6682,2.6682,0,0,0,0,0,0,0,0,2.6776,2.6776,2.6761,2.6759,2.6755,2.6736,2.6755,2.6752,2.6706,2.6723,2.6701,2.6699,2.6699,2.6698,2.6698,2.6723,2.6722,2.6682,2.6682,2.6683,2.6683,0,0,0,0,0,0,0,2.6777,2.6776,2.6781,2.6761,2.6757,2.6742,2.6739,2.6754,2.6722,2.6722,2.6717,2.6715,2.6697,2.6697,2.6697,2.6721,2.6682,2.6683,2.6683,2.6683,2.678,2.6782,0,0,0,0,0,0,2.6782,2.6777,2.6781,2.678,2.6761,2.6744,2.6741,2.6744,2.6722,2.6717,2.6717,2.6712,2.6696,2.6696,2.6696,2.6745,2.6683,2.6684,2.6684,2.6778,2.6781,2.6783,0,0,0,0,0,0,2.6782,2.6783,2.6782,2.6777,2.6776,2.6746,2.6751,2.6745,2.6745,2.6718,2.6713,2.6723,2.6695,2.6694,2.6717,2.6744,2.6684,2.6685,2.6776,2.6779,2.6782,2.6846,0,0,0,0,0,0,2.6782,2.6783,2.68,2.6778,2.6777,2.6804,2.6753,2.6746,2.6747,2.6741,2.6723,2.6718,2.6693,2.6716,2.6718,2.6744,2.6685,2.6773,2.6777,2.6781,2.6841,2.6851,2.6859,0,0,0,0,0,2.6782,2.6819,2.6801,2.6802,2.6797,2.6805,2.6805,2.6775,2.6749,2.6765,2.6748,2.6718,2.6741,2.6719,2.672,2.6747,2.6771,2.6776,2.6781,2.6837,2.6849,2.6859,0,0,0,0,0,0,2.6845,2.6816,2.6795,2.6826,2.6819,2.6795,2.6815,2.6789,2.6789,2.6783,2.6748,2.6744,2.6771,2.6762,2.6737,2.6789,2.6751,2.6756,2.6794,2.6804,2.6813,2.6814,2.6686,0,0,0,0,0,2.6863,2.6872,2.6846,2.6876,2.6873,2.6845,2.6848,2.6826,2.6817,2.6813,2.6798,2.679,2.6795,2.68,2.6803,2.684,2.6835,2.6859,2.6868,2.6875,2.688,2.6898,2.6908,2.6798,2.6798,2.6798,0,0,2.6899,2.6884,2.6892,2.6888,2.688,2.689,2.6843,2.6856,2.6863,2.6815,2.6835,2.6824,2.6813,2.6842,2.6855,2.6835,2.6909,2.6881,2.6887,2.6888,2.6903,2.6914,2.6923,2.6801,2.6801,2.68,0,0,2.697,2.696,2.6983,2.6976,2.6963,2.6944,2.695,2.693,2.6921,2.694,2.6904,2.6912,2.6923,2.6916,2.6914,2.6983,2.6955,2.6985,2.7031,2.7048,2.7057,2.7064,2.7088,2.7097,2.699,2.699,2.699,0,2.7016,2.703,2.6999,2.7014,2.7013,2.697,2.6993,2.6988,2.6978,2.6978,2.6956,2.6967,2.6957,2.6984,2.7001,2.7001,2.7006,2.6986,2.7058,2.7065,2.7072,2.7094,2.7103,2.6994,2.6993,2.6993,2.6992,0,2.7088,2.7098,2.7118,2.7109,2.711,2.713,2.7101,2.7107,2.7085,2.7068,2.7088,2.7075,2.7074,2.7079,2.7058,2.7103,2.7091,2.7065,2.7026,2.7087,2.7106,2.7115,2.6999,2.6997,2.6996,2.6995,0,0,2.7197,2.7169,2.7177,2.7172,2.7155,2.7163,2.718,2.7179,2.7184,2.7179,2.7192,2.7202,2.7177,2.7175,2.7153,2.7169,2.7222,2.714,2.7139,2.7155,2.7269,2.7288,2.7299,2.7204,2.7206,2.7207,2.727,0,2.7263,2.729,2.7262,2.7295,2.7304,2.7263,2.7278,2.727,2.7255,2.726,2.7244,2.725,2.7218,2.7216,2.723,2.7213,2.7245,2.7208,2.7216,2.7216,2.7218,2.7309,2.7329,2.7389,2.7278,2.7279,2.728,0,2.7343,2.734,2.7374,2.7355,2.7357,2.7371,2.7368,2.7373,2.7363,2.7351,2.7349,2.7322,2.7338,2.7301,2.7322,2.7297,2.7299,2.7291,2.7293,2.7291,2.7251,2.7309,2.7408,2.7416,2.7292,2.7291,2.729,0,2.7417,2.7423,2.7443,2.744,2.7418,2.7429,2.7421,2.7408,2.7409,2.7406,2.7406,2.7406,2.7406,2.7406,2.738,2.7356,2.7403,2.7365,2.7393,2.7394,2.7404,2.7403,2.7503,2.7408,2.7407,2.7407,2.7407,0,2.7493,2.7515,2.7476,2.7489,2.7512,2.748,2.7504,2.7492,2.7481,2.749,2.7456,2.7466,2.7431,2.7437,2.7417,2.7437,2.7437,2.7428,2.7422,2.743,2.7431,2.7429,2.7424,2.741,2.7409,2.7409,2.7408,0,2.758,2.7555,2.7574,2.7552,2.7547,2.7565,2.7546,2.7557,2.7539,2.7552,2.7553,2.7526,2.7531,2.7505,2.7506,2.7493,2.7522,2.751,2.7525,2.7521,2.755,2.7547,2.7652,2.7663,2.7561,2.7562,2.7563,0,2.7629,2.7645,2.7624,2.7627,2.762,2.7627,2.7627,2.7597,2.7599,2.7588,2.76,2.7602,2.7602,2.7613,2.7593,2.7593,2.758,2.7617,2.758,2.7587,2.7579,2.7578,2.7579,2.7624,2.7625,2.7626,2.7627,0,2.7718,2.7705,2.7707,2.7705,2.7707,2.7704,2.7698,2.7703,2.767,2.7674,2.7679,2.7679,2.7679,2.7682,2.7678,2.7669,2.7643,2.7639,2.7645,2.7653,2.7661,2.7656,2.7545,2.7636,2.7636,2.7635,2.7634,2.7634,2.7787,2.7799,2.7786,2.7789,2.7782,2.7777,2.7786,2.777,2.7773,2.777,2.7752,2.776,2.7749,2.7741,2.7735,2.7741,2.7723,2.7733,2.7735,2.7738,2.7742,2.7661,2.774,2.774,2.774,2.7739,2.7739,0,2.7873,2.7863,2.7866,2.786,2.7862,2.7837,2.7829,2.7833,2.784,2.7832,2.7833,2.7838,2.784,2.7821,2.782,2.7829,2.7816,2.7829,2.7828,2.7826,2.7758,2.7752,2.7839,2.7839,2.7839,2.7839,2.7839,2.7839,2.7919,2.7937,2.7922,2.7936,2.7926,2.7933,2.7931,2.7926,2.7919,2.7926,2.7928,2.7915,2.7902,2.7901,2.7902,2.7896,2.7897,2.7914,2.7904,2.7841,2.7831,2.7822,2.7816,2.7915,2.7915,2.7971,2.7972,2.7972]}]]